Location: ??????
(36.0418°N, 43.6351°E)
Time: 22:09:48
(UTC+00:00)

ALOS - Pass Details

Date: 07 March 2021
Orbit: 683 x 685 km, 97.9° (Epoch: 19 April)

Event Time Altitude Azimuth Distance (km) Brightness Sun altitude
Rises 02:44:06 0° 349° (NNW) 3,055 5.5 -9.6°
Reaches altitude 10° 02:47:32 10° 322° (NW) 2,134 4.5 -8.9°
Maximum altitude 02:49:35 13° 295° (WNW) 1,940 4.0 -8.5°
Drops below altitude 10° 02:51:39 10° 269° (W) 2,128 4.1 -8.1°
Enters shadow 02:51:41 10° 268° (W) 2,134 4.1 -8.1°
